| time (UTC) | temp C | wind direction | speed KPH | gust KPH | rain 1hr cm | rain 24hr cm | rain mn cm | humidity % | barometer mb |
| 20260502221837 | 25 | 235 | 1.6 | 1.6 | 0.00 | 0.00 | 0.00 | 38 | 1023.4 |
| 20260502221334 | 24 | 186 | 0.0 | 0.0 | 0.00 | 0.00 | 0.00 | 42 | 1023.0 |
| 20260502220831 | 25 | 192 | 3.2 | 4.8 | 0.00 | 0.00 | 0.00 | 38 | 1023.1 |
| 20260502220327 | 24 | 201 | 3.2 | 3.2 | 0.00 | 0.00 | 0.00 | 43 | 1023.3 |
| 20260502215823 | 24 | 214 | 0.0 | 0.0 | 0.00 | 0.00 | 0.00 | 41 | 1023.3 |
| 20260502215321 | 24 | 198 | 8.0 | 9.7 | 0.00 | 0.00 | 0.00 | 40 | 1023.3 |
| 20260502214818 | 24 | 255 | 3.2 | 3.2 | 0.00 | 0.00 | 0.00 | 38 | 1023.4 |
| 20260502214315 | 25 | 199 | 3.2 | 3.2 | 0.00 | 0.00 | 0.00 | 39 | 1023.2 |
| 20260502213812 | 25 | 227 | 1.6 | 1.6 | 0.00 | 0.00 | 0.00 | 40 | 1023.5 |
| 20260502213309 | 25 | 198 | 0.0 | 1.6 | 0.00 | 0.00 | 0.00 | 43 | 1023.5 |
| 20260502212808 | 25 | 290 | 1.6 | 1.6 | 0.00 | 0.00 | 0.00 | 40 | 1023.4 |
| 20260502212306 | 25 | 202 | 1.6 | 3.2 | 0.00 | 0.00 | 0.00 | 40 | 1023.4 |
| 20260502211802 | 25 | 249 | 0.0 | 0.0 | 0.00 | 0.00 | 0.00 | 39 | 1023.6 |
| 20260502211258 | 25 | 203 | 3.2 | 4.8 | 0.00 | 0.00 | 0.00 | 40 | 1023.5 |
| 20260502210755 | 25 | 250 | 0.0 | 1.6 | 0.00 | 0.00 | 0.00 | 44 | 1023.7 |
| 20260502210253 | 25 | 180 | 0.0 | 1.6 | 0.00 | 0.00 | 0.00 | 43 | 1023.8 |
| 20260502205750 | 25 | 255 | 1.6 | 3.2 | 0.00 | 0.00 | 0.00 | 45 | 1024.2 |
| 20260502205246 | 25 | 182 | 4.8 | 4.8 | 0.00 | 0.00 | 0.00 | 41 | 1024.0 |
| 20260502204743 | 25 | 267 | 0.0 | 0.0 | 0.00 | 0.00 | 0.00 | 39 | 1024.1 |
| 20260502204240 | 25 | 254 | 0.0 | 0.0 | 0.00 | 0.00 | 0.00 | 44 | 1024.2 |
| 20260502203738 | 24 | 211 | 0.0 | 1.6 | 0.00 | 0.00 | 0.00 | 43 | 1024.2 |
| 20260502203236 | 25 | 208 | 0.0 | 1.6 | 0.00 | 0.00 | 0.00 | 43 | 1024.1 |
| 20260502202729 | 25 | 227 | 0.0 | 1.6 | 0.00 | 0.00 | 0.00 | 42 | 1024.3 |
| 20260502202228 | 25 | 221 | 4.8 | 8.0 | 0.00 | 0.00 | 0.00 | 39 | 1024.4 |
| 20260502201725 | 25 | 203 | 3.2 | 3.2 | 0.00 | 0.00 | 0.00 | 48 | 1024.3 |
| 20260502201222 | 24 | 255 | 0.0 | 0.0 | 0.00 | 0.00 | 0.00 | 44 | 1024.4 |
| 20260502200718 | 25 | 221 | 0.0 | 1.6 | 0.00 | 0.00 | 0.00 | 43 | 1024.7 |
| 20260502200214 | 25 | 168 | 1.6 | 3.2 | 0.00 | 0.00 | 0.00 | 42 | 1024.5 |
| 20260502195713 | 25 | 243 | 0.0 | 0.0 | 0.00 | 0.00 | 0.00 | 49 | 1024.5 |
| 20260502195209 | 25 | 208 | 0.0 | 1.6 | 0.00 | 0.00 | 0.00 | 51 | 1024.7 |
| 20260502194706 | 25 | 266 | 1.6 | 1.6 | 0.00 | 0.00 | 0.00 | 50 | 1024.6 |
| 20260502194203 | 24 | 238 | 1.6 | 1.6 | 0.00 | 0.00 | 0.00 | 49 | 1024.8 |
| 20260502193658 | 23 | 239 | 1.6 | 3.2 | 0.00 | 0.00 | 0.00 | 45 | 1024.7 |
| 20260502193156 | 23 | 239 | 0.0 | 0.0 | 0.00 | 0.00 | 0.00 | 46 | 1024.7 |
| 20260502192651 | 23 | 160 | 3.2 | 4.8 | 0.00 | 0.00 | 0.00 | 49 | 1024.8 |
| 20260502192149 | 23 | 198 | 0.0 | 0.0 | 0.00 | 0.00 | 0.00 | 49 | 1024.8 |
| 20260502191645 | 23 | 254 | 0.0 | 0.0 | 0.00 | 0.00 | 0.00 | 48 | 1024.7 |
| 20260502191143 | 23 | 206 | 1.6 | 3.2 | 0.00 | 0.00 | 0.00 | 49 | 1024.9 |
| 20260502190640 | 23 | 222 | 3.2 | 3.2 | 0.00 | 0.00 | 0.00 | 52 | 1024.8 |
| 20260502190139 | 23 | 207 | 1.6 | 1.6 | 0.00 | 0.00 | 0.00 | 50 | 1024.8 |
| 20260502185637 | 23 | 236 | 1.6 | 1.6 | 0.00 | 0.00 | 0.00 | 52 | 1024.8 |
| 20260502185135 | 23 | 246 | 1.6 | 1.6 | 0.00 | 0.00 | 0.00 | 50 | 1025.1 |
| 20260502184631 | 23 | 237 | 4.8 | 8.0 | 0.00 | 0.00 | 0.00 | 49 | 1024.9 |
| 20260502184127 | 23 | 208 | 1.6 | 3.2 | 0.00 | 0.00 | 0.00 | 49 | 1025.0 |
| 20260502183624 | 23 | 185 | 1.6 | 1.6 | 0.00 | 0.00 | 0.00 | 49 | 1025.1 |
| 20260502183120 | 23 | 210 | 0.0 | 0.0 | 0.00 | 0.00 | 0.00 | 53 | 1025.2 |
| 20260502182615 | 23 | 224 | 0.0 | 0.0 | 0.00 | 0.00 | 0.00 | 56 | 1025.3 |
| 20260502182111 | 23 | 201 | 0.0 | 1.6 | 0.00 | 0.00 | 0.00 | 59 | 1025.3 |
| 20260502181609 | 23 | 199 | 1.6 | 1.6 | 0.00 | 0.00 | 0.00 | 59 | 1025.3 |
| 20260502181108 | 23 | 201 | 0.0 | 1.6 | 0.00 | 0.00 | 0.00 | 56 | 1025.5 |
| 20260502180605 | 23 | 180 | 4.8 | 4.8 | 0.00 | 0.00 | 0.00 | 56 | 1025.5 |
| 20260502164008 | 21 | 210 | 0.0 | 0.0 | 0.00 | 0.00 | 0.00 | 62 | 1026.5 |
| 20260502163503 | 20 | 239 | 1.6 | 3.2 | 0.00 | 0.00 | 0.00 | 59 | 1026.4 |
| 20260502163000 | 20 | 190 | 0.0 | 0.0 | 0.00 | 0.00 | 0.00 | 66 | 1026.6 |
| 20260502162457 | 21 | 234 | 0.0 | 1.6 | 0.00 | 0.00 | 0.00 | 66 | 1026.7 |
| 20260502161954 | 20 | 234 | 0.0 | 0.0 | 0.00 | 0.00 | 0.00 | 65 | 1026.6 |
| 20260502161450 | 19 | 222 | 4.8 | 4.8 | 0.00 | 0.00 | 0.00 | 67 | 1026.6 |
| 20260502160949 | 18 | 255 | 1.6 | 1.6 | 0.00 | 0.00 | 0.00 | 71 | 1026.7 |
| 20260502160446 | 19 | 261 | 0.0 | 1.6 | 0.00 | 0.00 | 0.00 | 68 | 1026.7 |
| 20260502151930 | 17 | 252 | 1.6 | 3.2 | 0.00 | 0.00 | 0.00 | 75 | 1026.7 |
| 20260502151426 | 17 | 253 | 1.6 | 1.6 | 0.00 | 0.00 | 0.00 | 74 | 1026.8 |
| 20260502150924 | 17 | 254 | 0.0 | 1.6 | 0.00 | 0.00 | 0.00 | 77 | 1026.9 |
| 20260502150420 | 17 | 235 | 0.0 | 0.0 | 0.00 | 0.00 | 0.00 | 76 | 1026.5 |
| 20260502130306 | 11 | 235 | 0.0 | 0.0 | 0.00 | 0.00 | 0.00 | 99 | 1025.5 |
| 20260502123751 | 10 | 246 | 0.0 | 0.0 | 0.00 | 0.00 | 0.00 | 99 | 1025.2 |
| 20260502123248 | 10 | 254 | 0.0 | 0.0 | 0.00 | 0.00 | 0.00 | 99 | 1025.0 |
| 20260502122745 | 10 | 252 | 0.0 | 0.0 | 0.00 | 0.00 | 0.00 | 99 | 1025.2 |
| 20260502122241 | 10 | 252 | 0.0 | 0.0 | 0.00 | 0.00 | 0.00 | 99 | 1025.0 |
| 20260502121740 | 10 | 242 | 0.0 | 0.0 | 0.00 | 0.00 | 0.00 | 99 | 1024.9 |
| 20260502121237 | 10 | 242 | 0.0 | 0.0 | 0.00 | 0.00 | 0.00 | 99 | 1024.7 |
| 20260502120733 | 10 | 242 | 0.0 | 0.0 | 0.00 | 0.00 | 0.00 | 99 | 1024.6 |
| 20260502120230 | 10 | 242 | 0.0 | 0.0 | 0.00 | 0.00 | 0.00 | 99 | 1024.5 |
| 20260502115728 | 10 | 242 | 0.0 | 0.0 | 0.00 | 0.00 | 0.00 | 99 | 1024.4 |
| 20260502115225 | 10 | 242 | 0.0 | 0.0 | 0.00 | 0.00 | 0.00 | 99 | 1024.3 |
| 20260502114720 | 10 | 242 | 0.0 | 0.0 | 0.00 | 0.00 | 0.00 | 99 | 1024.1 |
| 20260502114218 | 10 | 242 | 0.0 | 0.0 | 0.00 | 0.00 | 0.00 | 99 | 1024.2 |
| 20260502113715 | 10 | 242 | 0.0 | 0.0 | 0.00 | 0.00 | 0.00 | 99 | 1024.2 |
| 20260502113213 | 10 | 242 | 0.0 | 0.0 | 0.00 | 0.00 | 0.00 | 99 | 1023.9 |
| 20260502112711 | 10 | 242 | 0.0 | 0.0 | 0.00 | 0.00 | 0.00 | 99 | 1023.8 |
| 20260502112208 | 10 | 242 | 0.0 | 0.0 | 0.00 | 0.00 | 0.00 | 99 | 1024.1 |
| 20260502111705 | 10 | 242 | 0.0 | 0.0 | 0.00 | 0.00 | 0.00 | 99 | 1023.8 |
| 20260502111203 | 10 | 242 | 0.0 | 0.0 | 0.00 | 0.00 | 0.00 | 99 | 1023.9 |
| 20260502110700 | 10 | 243 | 0.0 | 0.0 | 0.00 | 0.00 | 0.00 | 99 | 1024.0 |
| 20260502110157 | 10 | 242 | 0.0 | 0.0 | 0.00 | 0.00 | 0.00 | 99 | 1023.8 |
| 20260502105655 | 10 | 242 | 0.0 | 0.0 | 0.00 | 0.00 | 0.00 | 99 | 1023.7 |
| 20260502105152 | 10 | 242 | 0.0 | 0.0 | 0.00 | 0.00 | 0.00 | 99 | 1023.7 |
| 20260502104649 | 10 | 242 | 0.0 | 0.0 | 0.00 | 0.00 | 0.00 | 99 | 1023.6 |
| 20260502104147 | 10 | 242 | 0.0 | 0.0 | 0.00 | 0.00 | 0.00 | 99 | 1023.6 |
| 20260502103644 | 10 | 243 | 0.0 | 0.0 | 0.00 | 0.00 | 0.00 | 98 | 1023.3 |
| 20260502103141 | 10 | 242 | 0.0 | 0.0 | 0.00 | 0.00 | 0.00 | 98 | 1023.5 |
| 20260502102638 | 10 | 242 | 0.0 | 0.0 | 0.00 | 0.00 | 0.00 | 98 | 1023.4 |
| 20260502102135 | 10 | 242 | 0.0 | 0.0 | 0.00 | 0.00 | 0.00 | 98 | 1023.1 |
| 20260502101633 | 10 | 242 | 0.0 | 0.0 | 0.00 | 0.00 | 0.00 | 98 | 1023.1 |
| 20260502101131 | 10 | 243 | 0.0 | 0.0 | 0.00 | 0.00 | 0.00 | 98 | 1023.0 |
| 20260502100629 | 10 | 242 | 0.0 | 0.0 | 0.00 | 0.00 | 0.00 | 98 | 1023.0 |
| 20260502100127 | 10 | 242 | 0.0 | 0.0 | 0.00 | 0.00 | 0.00 | 98 | 1022.9 |
| 20260502091101 | 10 | 253 | 0.0 | 0.0 | 0.00 | 0.00 | 0.00 | 98 | 1022.6 |
| 20260502090558 | 10 | 249 | 0.0 | 0.0 | 0.00 | 0.00 | 0.00 | 99 | 1022.3 |
| 20260502071458 | 10 | 249 | 0.0 | 0.0 | 0.00 | 0.00 | 0.00 | 99 | 1022.1 |
| 20260502070956 | 11 | 249 | 0.0 | 0.0 | 0.00 | 0.00 | 0.00 | 99 | 1022.2 |
| 20260502070454 | 11 | 249 | 0.0 | 0.0 | 0.00 | 0.00 | 0.00 | 99 | 1022.3 |
| 20260502065952 | 11 | 249 | 0.0 | 0.0 | 0.00 | 0.00 | 0.00 | 99 | 1022.2 |
| 20260502065451 | 11 | 245 | 0.0 | 0.0 | 0.00 | 0.00 | 0.00 | 99 | 1022.0 |
| 20260502064948 | 11 | 245 | 0.0 | 0.0 | 0.00 | 0.00 | 0.00 | 99 | 1022.3 |
| 20260502064446 | 11 | 245 | 0.0 | 0.0 | 0.00 | 0.00 | 0.00 | 99 | 1022.0 |
| 20260502063943 | 11 | 245 | 0.0 | 0.0 | 0.00 | 0.00 | 0.00 | 99 | 1021.9 |
| 20260502063441 | 11 | 246 | 0.0 | 0.0 | 0.00 | 0.00 | 0.00 | 99 | 1022.0 |
| 20260502062938 | 11 | 245 | 0.0 | 0.0 | 0.00 | 0.00 | 0.00 | 99 | 1021.9 |
| 20260502062435 | 11 | 244 | 0.0 | 0.0 | 0.00 | 0.00 | 0.00 | 99 | 1022.0 |
| 20260502061934 | 11 | 245 | 0.0 | 0.0 | 0.00 | 0.00 | 0.00 | 99 | 1022.3 |
| 20260502061431 | 11 | 245 | 0.0 | 0.0 | 0.00 | 0.00 | 0.00 | 99 | 1022.1 |
| 20260502060927 | 11 | 245 | 0.0 | 0.0 | 0.00 | 0.00 | 0.00 | 99 | 1022.3 |
| 20260502060422 | 11 | 245 | 0.0 | 0.0 | 0.00 | 0.00 | 0.00 | 99 | 1022.1 |
| 20260502055920 | 11 | 245 | 0.0 | 0.0 | 0.00 | 3.12 | 3.12 | 99 | 1022.3 |
| 20260502055418 | 11 | 245 | 0.0 | 0.0 | 0.00 | 3.12 | 3.12 | 99 | 1022.3 |
| 20260502054917 | 11 | 245 | 0.0 | 0.0 | 0.00 | 3.12 | 3.12 | 99 | 1022.3 |
| 20260502054414 | 11 | 245 | 0.0 | 0.0 | 0.00 | 3.12 | 3.12 | 99 | 1022.3 |
| 20260502053912 | 11 | 245 | 0.0 | 0.0 | 0.00 | 3.12 | 3.12 | 99 | 1022.1 |
| 20260502053409 | 11 | 245 | 0.0 | 0.0 | 0.00 | 3.12 | 3.12 | 99 | 1022.3 |
| 20260502052906 | 11 | 246 | 0.0 | 0.0 | 0.00 | 3.12 | 3.12 | 99 | 1022.2 |
| 20260502052405 | 11 | 245 | 0.0 | 0.0 | 0.00 | 3.12 | 3.12 | 99 | 1022.3 |
| 20260502051902 | 11 | 245 | 0.0 | 0.0 | 0.00 | 3.12 | 3.12 | 99 | 1022.1 |
| 20260502051400 | 11 | 245 | 0.0 | 0.0 | 0.00 | 3.12 | 3.12 | 99 | 1022.1 |
| 20260502050857 | 11 | 245 | 0.0 | 0.0 | 0.00 | 3.12 | 3.12 | 99 | 1022.1 |
| 20260502050353 | 11 | 246 | 0.0 | 0.0 | 0.00 | 3.12 | 3.12 | 99 | 1022.1 |
| 20260502045850 | 11 | 246 | 0.0 | 0.0 | 0.00 | 3.12 | 3.12 | 99 | 1021.7 |
| 20260502045347 | 11 | 245 | 0.0 | 0.0 | 0.00 | 3.12 | 3.12 | 99 | 1021.8 |
| 20260502044844 | 11 | 245 | 0.0 | 0.0 | 0.00 | 3.12 | 3.12 | 99 | 1021.8 |
| 20260502044340 | 11 | 245 | 0.0 | 0.0 | 0.00 | 3.12 | 3.12 | 99 | 1021.9 |
| 20260502043837 | 11 | 246 | 0.0 | 0.0 | 0.00 | 3.12 | 3.12 | 99 | 1022.0 |
| 20260502043335 | 11 | 246 | 0.0 | 0.0 | 0.00 | 3.12 | 3.12 | 99 | 1021.7 |
| 20260502042834 | 11 | 246 | 0.0 | 0.0 | 0.00 | 3.12 | 3.12 | 98 | 1021.9 |
| 20260502042332 | 11 | 246 | 0.0 | 0.0 | 0.00 | 3.12 | 3.12 | 98 | 1021.8 |
| 20260502041829 | 11 | 246 | 0.0 | 0.0 | 0.00 | 3.12 | 3.12 | 98 | 1021.8 |
| 20260502041326 | 11 | 246 | 0.0 | 0.0 | 0.00 | 3.12 | 3.12 | 98 | 1021.9 |
| 20260502040823 | 11 | 246 | 0.0 | 0.0 | 0.00 | 3.12 | 3.12 | 98 | 1022.1 |
| 20260502040320 | 11 | 246 | 0.0 | 0.0 | 0.00 | 3.12 | 3.12 | 98 | 1021.7 |
| 20260502035816 | 11 | 246 | 0.0 | 0.0 | 0.00 | 3.12 | 3.12 | 98 | 1021.9 |
| 20260502035313 | 11 | 245 | 1.6 | 3.2 | 0.00 | 3.12 | 3.12 | 98 | 1022.1 |
| 20260502034810 | 11 | 254 | 0.0 | 0.0 | 0.00 | 3.12 | 3.12 | 98 | 1021.9 |
| 20260502034309 | 12 | 240 | 0.0 | 0.0 | 0.00 | 3.12 | 3.12 | 98 | 1021.7 |
| 20260502033807 | 12 | 239 | 0.0 | 0.0 | 0.00 | 3.12 | 3.12 | 98 | 1021.6 |
| 20260502033304 | 12 | 250 | 0.0 | 0.0 | 0.00 | 3.12 | 3.12 | 98 | 1021.9 |
| 20260502032800 | 12 | 250 | 0.0 | 0.0 | 0.00 | 3.12 | 3.12 | 98 | 1022.0 |
| 20260502032257 | 12 | 251 | 0.0 | 0.0 | 0.00 | 3.12 | 3.12 | 98 | 1022.0 |
| 20260502031755 | 12 | 259 | 0.0 | 1.6 | 0.00 | 3.12 | 3.12 | 98 | 1021.9 |
| 20260502031252 | 12 | 241 | 0.0 | 0.0 | 0.00 | 3.12 | 3.12 | 98 | 1022.0 |
| 20260502030751 | 12 | 233 | 0.0 | 0.0 | 0.00 | 3.12 | 3.12 | 98 | 1022.0 |
| 20260502030248 | 12 | 253 | 0.0 | 0.0 | 0.00 | 3.12 | 3.12 | 98 | 1021.9 |
| 20260502025745 | 12 | 248 | 0.0 | 0.0 | 0.00 | 3.12 | 3.12 | 98 | 1021.7 |
| 20260502025243 | 12 | 239 | 0.0 | 0.0 | 0.00 | 3.12 | 3.12 | 99 | 1021.5 |
| 20260502024741 | 12 | 228 | 0.0 | 0.0 | 0.00 | 3.12 | 3.12 | 99 | 1021.4 |
| 20260502024238 | 12 | 209 | 0.0 | 0.0 | 0.00 | 3.12 | 3.12 | 99 | 1021.1 |
| 20260502023736 | 12 | 239 | 0.0 | 1.6 | 0.00 | 3.12 | 3.12 | 99 | 1021.1 |
| 20260502023234 | 12 | 208 | 0.0 | 1.6 | 0.00 | 3.12 | 3.12 | 99 | 1021.1 |
| 20260502022732 | 12 | 219 | 1.6 | 3.2 | 0.00 | 3.12 | 3.12 | 99 | 1021.1 |
| 20260502022227 | 12 | 236 | 0.0 | 0.0 | 0.00 | 3.12 | 3.12 | 99 | 1021.1 |
| 20260502021725 | 12 | 243 | 0.0 | 0.0 | 0.00 | 3.12 | 3.12 | 99 | 1020.9 |
| 20260502021222 | 12 | 228 | 0.0 | 0.0 | 0.00 | 3.12 | 3.12 | 99 | 1020.7 |
| 20260502020719 | 11 | 223 | 1.6 | 4.8 | 0.00 | 3.12 | 3.12 | 99 | 1020.5 |
| 20260502020216 | 11 | 217 | 0.0 | 0.0 | 0.00 | 3.12 | 3.12 | 99 | 1020.6 |
| 20260502015714 | 12 | 244 | 0.0 | 1.6 | 0.00 | 3.12 | 3.12 | 99 | 1020.6 |
| 20260502015210 | 12 | 246 | 0.0 | 0.0 | 0.00 | 3.12 | 3.12 | 99 | 1020.5 |
| 20260502014708 | 12 | 243 | 0.0 | 0.0 | 0.00 | 3.12 | 3.12 | 99 | 1020.4 |
| 20260502014205 | 12 | 232 | 0.0 | 0.0 | 0.00 | 3.12 | 3.12 | 99 | 1020.3 |
| 20260502013700 | 12 | 231 | 0.0 | 0.0 | 0.00 | 3.12 | 3.12 | 99 | 1020.2 |
| 20260502013155 | 12 | 246 | 1.6 | 1.6 | 0.00 | 3.12 | 3.12 | 99 | 1020.3 |
| 20260502012653 | 12 | 217 | 0.0 | 1.6 | 0.00 | 3.12 | 3.12 | 99 | 1020.1 |
| 20260502012152 | 12 | 228 | 0.0 | 1.6 | 0.00 | 3.12 | 3.12 | 99 | 1020.1 |
| 20260502011648 | 12 | 222 | 1.6 | 1.6 | 0.00 | 3.12 | 3.12 | 99 | 1019.9 |
| 20260502011143 | 12 | 244 | 0.0 | 0.0 | 0.00 | 3.12 | 3.12 | 99 | 1019.9 |
| 20260502010641 | 12 | 239 | 0.0 | 0.0 | 0.00 | 3.12 | 3.12 | 99 | 1019.9 |
| 20260502010138 | 12 | 232 | 0.0 | 0.0 | 0.00 | 3.12 | 3.12 | 99 | 1019.5 |
| 20260502005635 | 12 | 205 | 3.2 | 4.8 | 0.00 | 3.12 | 3.12 | 99 | 1019.8 |
| 20260502005133 | 12 | 226 | 1.6 | 3.2 | 0.00 | 3.12 | 3.12 | 99 | 1019.4 |
| 20260502004628 | 12 | 232 | 0.0 | 0.0 | 0.00 | 3.12 | 3.12 | 99 | 1019.2 |
| 20260502004125 | 12 | 221 | 1.6 | 3.2 | 0.00 | 3.12 | 3.12 | 99 | 1019.2 |
| 20260502003624 | 12 | 203 | 0.0 | 1.6 | 0.00 | 3.12 | 3.12 | 99 | 1019.0 |
| 20260502003120 | 12 | 184 | 1.6 | 3.2 | 0.00 | 3.12 | 3.12 | 99 | 1019.1 |
| 20260502002616 | 12 | 242 | 0.0 | 1.6 | 0.00 | 3.12 | 3.12 | 99 | 1019.0 |
| 20260502002114 | 12 | 224 | 0.0 | 1.6 | 0.00 | 3.12 | 3.12 | 99 | 1019.1 |
| 20260502001611 | 12 | 252 | 0.0 | 0.0 | 0.00 | 3.12 | 3.12 | 99 | 1018.9 |
| 20260502001108 | 11 | 194 | 0.0 | 3.2 | 0.00 | 3.12 | 3.12 | 99 | 1018.9 |
| 20260502000607 | 12 | 222 | 0.0 | 1.6 | 0.00 | 3.12 | 3.12 | 99 | 1018.8 |
| 20260501235559 | 12 | 281 | 6.4 | 9.7 | 0.00 | 3.12 | 3.12 | 99 | 1018.4 |
| 20260501235055 | 12 | 262 | 3.2 | 3.2 | 0.13 | 3.12 | 3.12 | 99 | 1018.1 |
| 20260501234551 | 12 | 237 | 0.0 | 0.0 | 0.13 | 3.12 | 3.12 | 99 | 1018.3 |
| 20260501234049 | 12 | 228 | 0.0 | 0.0 | 0.00 | 3.10 | 3.10 | 99 | 1018.1 |
| 20260501233547 | 12 | 221 | 0.0 | 3.2 | 0.00 | 3.10 | 3.10 | 99 | 1017.9 |
| 20260501233044 | 12 | 209 | 0.0 | 0.0 | 0.00 | 3.10 | 3.10 | 99 | 1018.1 |
| 20260501232540 | 13 | 224 | 0.0 | 0.0 | 0.00 | 3.10 | 3.10 | 99 | 1018.2 |
| 20260501232037 | 13 | 246 | 0.0 | 0.0 | 0.00 | 3.10 | 3.10 | 99 | 1018.2 |
| 20260501231535 | 13 | 247 | 0.0 | 0.0 | 0.00 | 3.10 | 3.10 | 99 | 1018.1 |
| 20260501231033 | 12 | 236 | 0.0 | 0.0 | 0.00 | 3.10 | 3.10 | 99 | 1017.9 |
| 20260501230532 | 13 | 240 | 1.6 | 1.6 | 0.00 | 3.10 | 3.10 | 99 | 1018.0 |
| 20260501230029 | 13 | 233 | 1.6 | 4.8 | 0.00 | 3.10 | 3.10 | 99 | 1017.7 |
| 20260501225526 | 13 | 236 | 0.0 | 0.0 | 0.00 | 3.10 | 3.10 | 99 | 1017.7 |
| 20260501225022 | 13 | 234 | 0.0 | 1.6 | 0.00 | 3.10 | 3.10 | 99 | 1017.6 |
| 20260501224520 | 13 | 252 | 0.0 | 0.0 | 0.00 | 3.10 | 3.10 | 99 | 1017.8 |
| 20260501224017 | 13 | 228 | 0.0 | 0.0 | 0.00 | 3.10 | 3.10 | 99 | 1017.9 |
| 20260501223513 | 13 | 252 | 0.0 | 0.0 | 0.00 | 3.10 | 3.10 | 99 | 1017.7 |
| 20260501223009 | 13 | 251 | 0.0 | 0.0 | 0.00 | 3.10 | 3.10 | 99 | 1017.9 |
| 20260501222506 | 13 | 246 | 1.6 | 3.2 | 0.00 | 3.10 | 3.10 | 99 | 1017.9 |